Back to catalog

THOR ABLESTAR DEB

AliveLEO
NORAD 325·DEBRIS·🇺🇸 United States

Launched Jun 29, 1961 from Cape Canaveral Space Force Station

Loading…

Next Passes (next 24 hours)

TLE

FreshSource: Space-Track

Epoch: Sep 14, 2026, 01:00 UTC

1 00325U 61015DB  26257.04222971  .00000710  00000-0  34338-3 0  9994
2 00325  66.9123 235.8045 0059863 317.0962  42.5472 14.23248646345809

Track THOR ABLESTAR DEB in real time with AllMySat

Download on the App Store